Location: Antichan
(42.9728°N, 0.6667°E)
Time: 17:00:17
(UTC+00:00)

Cosmos 44 - Pass Details

Date: 15 August 2020
Orbit: 583 x 779 km, 65.1° (Epoch: 18 September)

Event Time Altitude Azimuth Distance (km) Brightness Sun altitude
Rises 20:31:10 0° 331° (NNW) 3,046 7.9 -15.7°
Reaches altitude 10° 20:33:34 10° 338° (NNW) 2,160 6.7 -16.0°
Maximum altitude 20:38:16 43° 50° (NE) 1,011 4.0 -16.7°
Enters shadow 20:40:34 27° 104° (ESE) 1,391 4.3 -17.0°
